Погода в Джативанги

Индонезия     6°45′55″S   108°10′12″E
темп.,
°C
ветер,
м/с
пор.,
м/с
влажн.,
%
обл.,
%
осадки,
мм/ч
давл.,
гПа
погр.,
м
1 марта, пн
пн101:00+24ююз129099 0.0 101025
04:00+24ююз1288100 0.0 100927
07:00+25ююз118595 0.0 101158
10:00+30с216332 0.0 1011848
13:00+31ссв336434 1.0 10091144
16:00+27св3582100 5.4 1008505
19:00+25ссз018999 7.8 101025
22:00+24ю1293100 0.0 101227
2 марта, вт
вт201:00+24ююз1191100 0.2 101025
04:00+23ю119188 0.0 100924
07:00+25ююз118874 0.7 101188
10:00+29зсз457046 0.1 1011974
13:00+30сз467044 1.4 10091114
16:00+28сз258296 7.3 1008686
19:00+24ю119398 14.3 101049
22:00+24ю1188100 0.4 101229
3 марта, ср
ср301:00+24ююв1187100 0.4 101024
04:00+24вюв018898 0.0 100924
07:00+24юз128899 0.0 101065
10:00+28ссз237495 0.0 1011624
13:00+29с337190 0.5 1009963
16:00+27ссв237960 2.9 1008680
19:00+25в119276 7.1 101025
22:00+24ссв1192100 7.9 101239
4 марта, чт
чт401:00+23юв1194100 10.8 101249
04:00+23в1193100 1.4 101134
07:00+24ююз1187100 1.6 101264
10:00+26зсз117682 0.0 1012376
13:00+27сз127389 0.0 1010487
16:00+29с226998 0.5 1009585
19:00+24св129099 6.6 101143
22:00+23зсз2396100 7.7 101296
5 марта, пт
пт501:00+23юз1293100 7.9 101138
04:00+23ю1288100 0.0 101024
07:00+24ююв1185100 0.0 101124
10:00+30сз216488 0.0 1012668
13:00+31с336355 0.9 10091068
16:00+27с238566 7.8 1007446
19:00+25св008982 12.4 101024
22:00+24ю1190100 0.4 101124